Date String (YYYY-MM-DD hh:mm:ss) UTC,Instrument flags,Ambient pressure (hPa),Sample flow (lpm),Bypass flow (lpm),Sample temperature (°C),Ambient temperature (°C),ASC tube jacket temperature (°C),LED temperature (°C),Box temperature (°C),Sample RH (%),Span deviation,Mass concentration (μg/m³),Mass concentration (μg/m³),Mass concentration (μg/m³)
DateTimeUTC,F1_M11,P_M11,Q1_M11,Q2_M11,T1_M11,T2_M11,T3_M11,T4_M11,T5_M11,U1_M11,ZSPAN_M11,X0_M11,X2_M11,X1_M11
2022-07-10 16:00:00,,0831.0,5.00,0.00,32.7,32.3,00.0,40.9,34.6,14.2,0000.0,0007.87,0003.38,0002.70
2022-07-10 16:01:00,,0831.0,5.01,0.00,32.7,32.4,00.0,41.0,34.6,13.9,0000.0,0007.78,0003.40,0002.70
2022-07-10 16:02:00,,0831.0,5.01,0.00,32.8,32.4,00.0,41.1,34.7,13.9,0000.0,0008.37,0003.43,0002.70
2022-07-10 16:03:00,,0831.0,5.00,0.00,32.8,32.5,00.0,41.1,34.7,13.7,0000.0,0009.19,0003.44,0002.69
2022-07-10 16:04:00,,0831.0,5.01,0.00,32.9,32.5,00.0,41.2,34.8,14.2,0000.0,0009.66,0003.41,0002.69
2022-07-10 16:05:00,,0831.0,5.01,0.00,33.0,32.6,00.0,41.2,34.8,14.3,0000.0,0010.30,0003.44,0002.71
2022-07-10 16:06:00,,0831.0,5.00,0.00,33.0,32.6,00.0,41.3,34.9,14.6,0000.0,0011.08,0003.43,0002.70
2022-07-10 16:07:00,,0831.0,5.00,0.00,33.1,32.7,00.0,41.4,34.9,13.6,0000.0,0011.23,0003.40,0002.69
2022-07-10 16:08:00,,0831.0,5.00,0.00,33.1,32.7,00.0,41.4,34.9,13.2,0000.0,0011.27,0003.40,0002.69
2022-07-10 16:09:00,,0831.0,4.99,0.00,33.2,32.8,00.0,41.5,35.0,12.5,0000.0,0011.33,0003.41,0002.69
2022-07-10 16:10:00,,0831.0,5.00,0.00,33.2,32.8,00.0,41.5,35.0,12.5,0000.0,0011.11,0003.35,0002.67
2022-07-10 16:11:00,,0831.0,5.00,0.00,33.3,32.9,00.0,41.6,35.1,12.6,0000.0,0010.80,0003.31,0002.65
2022-07-10 16:12:00,,0831.0,5.01,0.00,33.3,32.9,00.0,41.6,35.1,12.8,0000.0,0010.76,0003.29,0002.63
2022-07-10 16:13:00,,0831.0,5.00,0.00,33.4,32.9,00.0,41.7,35.2,12.9,0000.0,0010.38,0003.29,0002.61
2022-07-10 16:14:00,,0831.0,5.01,0.00,33.4,33.0,00.0,41.7,35.2,13.0,0000.0,0009.63,0003.28,0002.60
2022-07-10 16:15:00,,0831.0,5.01,0.00,33.5,33.0,00.0,41.8,35.3,13.1,0000.0,0008.92,0003.29,0002.59
2022-07-10 16:16:00,,0831.0,5.01,0.00,33.5,33.1,00.0,41.8,35.3,13.1,0000.0,0008.30,0003.28,0002.57
2022-07-10 16:17:00,,0831.0,5.01,0.00,33.6,33.1,00.0,41.9,35.3,12.6,0000.0,0007.66,0003.28,0002.56
2022-07-10 16:18:00,,0831.1,4.99,0.00,33.6,33.2,00.0,41.9,35.4,12.4,0000.0,0007.55,0003.28,0002.56
2022-07-10 16:19:00,,0831.0,5.00,0.00,33.7,33.2,00.0,42.0,35.4,12.8,0000.0,0007.42,0003.25,0002.55
2022-07-10 16:20:00,,0831.1,5.00,0.00,33.7,33.2,00.0,42.0,35.5,11.6,0000.0,0007.28,0003.22,0002.57
2022-07-10 16:21:00,,0831.0,5.00,0.00,33.8,33.3,00.0,42.1,35.5,11.9,0000.0,0006.15,0003.23,0002.60
2022-07-10 16:22:00,,0831.1,4.99,0.00,33.8,33.3,00.0,42.1,35.6,12.0,0000.0,0006.16,0003.23,0002.61
2022-07-10 16:23:00,,0831.1,5.00,0.00,33.8,33.4,00.0,42.2,35.6,11.6,0000.0,0006.22,0003.24,0002.65
2022-07-10 16:24:00,,0831.0,5.00,0.00,33.9,33.4,00.0,42.2,35.6,11.6,0000.0,0006.48,0003.26,0002.69
2022-07-10 16:25:00,,0831.0,4.99,0.00,33.9,33.4,00.0,42.3,35.7,11.4,0000.0,0006.73,0003.28,0002.74
2022-07-10 16:26:00,,0831.1,4.99,0.00,34.0,33.5,00.0,42.3,35.7,11.4,0000.0,0006.67,0003.29,0002.79
2022-07-10 16:27:00,,0831.0,4.99,0.00,34.0,33.5,00.0,42.4,35.8,11.6,0000.0,0007.03,0003.31,0002.82
2022-07-10 16:28:00,,0831.0,5.00,0.00,34.1,33.6,00.0,42.4,35.8,11.5,0000.0,0007.23,0003.35,0002.86
2022-07-10 16:29:00,,0831.0,4.99,0.00,34.1,33.6,00.0,42.5,35.8,11.5,0000.0,0007.33,0003.41,0002.90
2022-07-10 16:30:00,,0831.0,5.00,0.00,34.2,33.6,00.0,42.5,35.9,11.4,0000.0,0007.48,0003.46,0002.95
2022-07-10 16:31:00,,0831.1,5.01,0.00,34.2,33.7,00.0,42.5,35.9,11.6,0000.0,0007.55,0003.49,0002.96
2022-07-10 16:32:00,,0831.1,5.01,0.00,34.2,33.7,00.0,42.6,36.0,11.5,0000.0,0007.57,0003.51,0002.97
2022-07-10 16:33:00,,0831.0,5.00,0.00,34.3,33.7,00.0,42.6,36.0,11.6,0000.0,0007.54,0003.54,0003.00
2022-07-10 16:34:00,,0831.0,4.99,0.00,34.3,33.8,00.0,42.7,36.0,11.5,0000.0,0007.68,0003.57,0003.02
2022-07-10 16:35:00,,0831.0,5.00,0.00,34.4,33.8,00.0,42.7,36.1,11.5,0000.0,0007.70,0003.57,0003.03
2022-07-10 16:36:00,,0831.0,5.00,0.00,34.4,33.9,00.0,42.8,36.1,11.5,0000.0,0008.44,0003.57,0003.03
2022-07-10 16:37:00,,0831.0,5.00,0.00,34.4,33.9,00.0,42.8,36.1,11.4,0000.0,0008.93,0003.58,0003.06
2022-07-10 16:38:00,,0831.0,4.98,0.00,34.5,33.9,00.0,42.8,36.2,11.6,0000.0,0008.81,0003.60,0003.10
2022-07-10 16:39:00,,0831.1,5.00,0.00,34.5,34.0,00.0,42.9,36.2,11.6,0000.0,0008.96,0003.60,0003.11
2022-07-10 16:40:00,,0831.1,4.99,0.00,34.6,34.0,00.0,42.9,36.2,11.8,0000.0,0009.12,0003.61,0003.12
2022-07-10 16:41:00,,0831.1,5.00,0.00,34.6,34.1,00.0,43.0,36.3,11.7,0000.0,0009.05,0003.60,0003.12
2022-07-10 16:42:00,,0831.1,4.99,0.00,34.7,34.1,00.0,43.0,36.3,11.9,0000.0,0009.89,0003.60,0003.12
2022-07-10 16:43:00,,0831.1,5.00,0.00,34.7,34.1,00.0,43.1,36.4,11.8,0000.0,0010.93,0003.60,0003.13
2022-07-10 16:44:00,,0831.1,5.01,0.00,34.7,34.2,00.0,43.1,36.4,12.2,0000.0,0011.34,0003.62,0003.14
2022-07-10 16:45:00,,0831.1,5.00,0.00,34.8,34.2,00.0,43.2,36.4,12.1,0000.0,0011.15,0003.61,0003.14
2022-07-10 16:46:00,,0831.1,4.99,0.00,34.8,34.2,00.0,43.2,36.5,11.9,0000.0,0010.85,0003.61,0003.14
2022-07-10 16:47:00,,0831.1,4.99,0.00,34.9,34.3,00.0,43.2,36.5,11.7,0000.0,0009.91,0003.60,0003.13
2022-07-10 16:48:00,,0831.1,5.01,0.00,34.9,34.3,00.0,43.3,36.5,11.8,0000.0,0009.29,0003.57,0003.11
2022-07-10 16:49:00,,0831.1,5.00,0.00,34.9,34.3,00.0,43.3,36.6,11.9,0000.0,0009.16,0003.54,0003.08
2022-07-10 16:50:00,,0831.1,5.00,0.00,35.0,34.4,00.0,43.4,36.6,11.8,0000.0,0008.80,0003.51,0003.06
2022-07-10 16:51:00,,0831.0,4.99,0.00,35.0,34.4,00.0,43.4,36.6,11.5,0000.0,0008.97,0003.48,0003.06
2022-07-10 16:52:00,,0831.0,5.01,0.00,35.1,34.5,00.0,43.4,36.7,11.6,0000.0,0009.29,0003.51,0003.06
2022-07-10 16:53:00,,0831.0,5.01,0.00,35.1,34.5,00.0,43.5,36.7,11.5,0000.0,0008.93,0003.48,0003.04
2022-07-10 16:54:00,,0831.0,4.99,0.00,35.1,34.5,00.0,43.5,36.7,11.6,0000.0,0007.89,0003.48,0003.03
2022-07-10 16:55:00,,0831.0,4.99,0.00,35.2,34.6,00.0,43.6,36.8,11.7,0000.0,0007.40,0003.45,0003.01
2022-07-10 16:56:00,,0831.0,5.02,0.00,35.2,34.6,00.0,43.6,36.8,11.8,0000.0,0007.49,0003.44,0003.00
2022-07-10 16:57:00,,0831.0,5.00,0.00,35.2,34.6,00.0,43.6,36.8,12.3,0000.0,0007.51,0003.44,0002.98
2022-07-10 16:58:00,,0831.0,5.00,0.00,35.3,34.7,00.0,43.7,36.9,12.4,0000.0,0007.50,0003.43,0002.99
2022-07-10 16:59:00,,0831.0,5.00,0.00,35.3,34.7,00.0,43.7,36.9,12.1,0000.0,0007.74,0003.46,0003.02
